SWR3BY EDDB-LSZH

Flight info

Callsign SWR3BY
Flight time 1h 10m
Altitude 30000
Route KISU1K DCT MAG Z92 ABGUS DCT LUXUX DCT SWALM DCT OMOGI T721 RILAX
Aircraft E190/M-SDE3GILORVW/S

Departure

Time 2026-05-05 20:02
Airport Berlin Brandenburg Airport (EDDB)

Arrival

Time 2026-05-05 21:13
Airport Zürich Airport (LSZH)
Time Latitude Longitude Altitude Speed Heading
2026-05-05 19:34 52.36614 13.50447 153 ft 0 kts 68°
2026-05-05 19:50 52.36614 13.50446 153 ft 2 kts 68°
2026-05-05 19:51 52.36605 13.50408 153 ft 4 kts 68°
2026-05-05 19:51 52.36595 13.50367 153 ft 4 kts 68°
2026-05-05 19:51 52.36585 13.50325 153 ft 4 kts 68°
2026-05-05 19:51 52.36577 13.50293 153 ft 4 kts 57°
2026-05-05 19:52 52.36559 13.50263 153 ft 4 kts 20°
2026-05-05 19:52 52.36539 13.50259 153 ft 1 kts 339°
2026-05-05 19:55 52.36549 13.50253 153 ft 5 kts 339°
2026-05-05 19:55 52.36597 13.50223 153 ft 9 kts 339°
2026-05-05 19:55 52.36660 13.50183 153 ft 10 kts 339°
2026-05-05 19:55 52.36719 13.50109 153 ft 12 kts 302°
2026-05-05 19:56 52.36742 13.50060 153 ft 1 kts 319°
2026-05-05 19:56 52.36750 13.50051 153 ft 0 kts 330°
2026-05-05 19:57 52.36751 13.50050 153 ft 1 kts 331°
2026-05-05 19:57 52.36784 13.50029 153 ft 8 kts 339°
2026-05-05 19:58 52.36841 13.49992 153 ft 10 kts 335°
2026-05-05 19:58 52.36862 13.49895 153 ft 10 kts 257°
2026-05-05 19:58 52.36835 13.49777 153 ft 12 kts 248°
2026-05-05 19:58 52.36803 13.49642 153 ft 14 kts 249°
2026-05-05 19:59 52.36767 13.49489 153 ft 15 kts 249°
2026-05-05 19:59 52.36727 13.49321 153 ft 17 kts 249°
2026-05-05 19:59 52.36684 13.49140 153 ft 17 kts 249°
2026-05-05 19:59 52.36639 13.48947 153 ft 19 kts 248°
2026-05-05 20:00 52.36599 13.48779 153 ft 16 kts 249°
2026-05-05 20:00 52.36561 13.48622 155 ft 11 kts 249°
2026-05-05 20:00 52.36531 13.48496 153 ft 13 kts 249°
2026-05-05 20:00 52.36539 13.48363 153 ft 13 kts 320°
2026-05-05 20:01 52.36626 13.48303 153 ft 14 kts 339°
2026-05-05 20:01 52.36719 13.48323 153 ft 15 kts 44°
2026-05-05 20:01 52.36747 13.48409 153 ft 1 kts 68°
2026-05-05 20:01 52.36784 13.48564 153 ft 49 kts 69°
2026-05-05 20:02 52.37008 13.49505 153 ft 127 kts 68°
2026-05-05 20:02 52.37414 13.51145 465 ft 173 kts 66°
2026-05-05 20:02 52.37886 13.53044 1465 ft 182 kts 66°
2026-05-05 20:02 52.38361 13.55007 2582 ft 193 kts 69°
2026-05-05 20:03 52.38775 13.57156 3583 ft 202 kts 73°
2026-05-05 20:03 52.39237 13.59366 4495 ft 208 kts 69°
2026-05-05 20:03 52.39904 13.61586 5018 ft 223 kts 55°
2026-05-05 20:03 52.41106 13.63371 5285 ft 251 kts 28°
2026-05-05 20:04 52.42764 13.64564 5749 ft 269 kts 23°
2026-05-05 20:04 52.44650 13.65012 6340 ft 280 kts 350°
2026-05-05 20:04 52.46399 13.63668 7066 ft 281 kts 316°
2026-05-05 20:04 52.47446 13.61032 7883 ft 277 kts 289°
2026-05-05 20:05 52.47777 13.57972 8625 ft 277 kts 268°
2026-05-05 20:05 52.47461 13.54826 9319 ft 281 kts 256°
2026-05-05 20:05 52.46979 13.51715 10018 ft 285 kts 254°
2026-05-05 20:05 52.46437 13.48448 10199 ft 307 kts 253°
2026-05-05 20:06 52.46037 13.46182 10360 ft 319 kts 253°
2026-05-05 20:06 52.45395 13.42668 10700 ft 330 kts 252°
2026-05-05 20:06 52.44718 13.38974 11298 ft 334 kts 252°
2026-05-05 20:06 52.43862 13.34074 12156 ft 337 kts 253°
2026-05-05 20:07 52.43447 13.31550 12548 ft 341 kts 254°
2026-05-05 20:07 52.42866 13.27784 13269 ft 341 kts 255°
2026-05-05 20:07 52.42288 13.24010 13930 ft 342 kts 253°
2026-05-05 20:07 52.41672 13.20226 14499 ft 345 kts 253°
2026-05-05 20:08 52.41048 13.16462 15051 ft 348 kts 253°
2026-05-05 20:08 52.40395 13.12624 15601 ft 351 kts 252°
2026-05-05 20:08 52.39723 13.08769 16155 ft 354 kts 252°
2026-05-05 20:08 52.39036 13.04871 16706 ft 357 kts 252°
2026-05-05 20:09 52.38339 13.00961 17262 ft 360 kts 252°
2026-05-05 20:09 52.37626 12.97016 17774 ft 364 kts 252°
2026-05-05 20:09 52.36899 12.93023 18313 ft 367 kts 252°
2026-05-05 20:09 52.36163 12.89000 18868 ft 368 kts 252°
2026-05-05 20:10 52.35427 12.84977 19449 ft 370 kts 252°
2026-05-05 20:10 52.34689 12.80935 20027 ft 371 kts 252°
2026-05-05 20:10 52.33963 12.76910 20554 ft 374 kts 252°
2026-05-05 20:10 52.33225 12.72818 21080 ft 375 kts 252°
2026-05-05 20:11 52.32451 12.68737 21558 ft 377 kts 251°
2026-05-05 20:11 52.31646 12.64625 21967 ft 380 kts 250°
2026-05-05 20:11 52.30832 12.60502 22428 ft 382 kts 250°
2026-05-05 20:11 52.30013 12.56363 22879 ft 384 kts 250°
2026-05-05 20:12 52.29183 12.52211 23308 ft 386 kts 250°
2026-05-05 20:12 52.28336 12.48033 23680 ft 387 kts 250°
2026-05-05 20:12 52.27481 12.43856 24063 ft 389 kts 250°
2026-05-05 20:12 52.26611 12.39642 24401 ft 392 kts 249°
2026-05-05 20:13 52.25745 12.35471 24779 ft 393 kts 249°
2026-05-05 20:13 52.24859 12.31172 25206 ft 395 kts 249°
2026-05-05 20:13 52.23997 12.26977 25589 ft 396 kts 249°
2026-05-05 20:13 52.23090 12.22655 25937 ft 398 kts 249°
2026-05-05 20:14 52.22187 12.18449 26257 ft 399 kts 249°
2026-05-05 20:14 52.21257 12.14164 26562 ft 401 kts 248°
2026-05-05 20:14 52.20318 12.09869 26864 ft 402 kts 248°
2026-05-05 20:14 52.19371 12.05563 27157 ft 404 kts 248°
2026-05-05 20:15 52.18414 12.01243 27436 ft 405 kts 248°
2026-05-05 20:15 52.17450 11.96913 27718 ft 407 kts 248°
2026-05-05 20:15 52.16479 11.92579 27986 ft 408 kts 248°
2026-05-05 20:15 52.15494 11.88221 28177 ft 411 kts 246°
2026-05-05 20:16 52.14485 11.83841 28430 ft 413 kts 247°
2026-05-05 20:16 52.13491 11.79488 28696 ft 415 kts 247°
2026-05-05 20:16 52.12486 11.75084 29015 ft 414 kts 247°
2026-05-05 20:16 52.11497 11.70690 29416 ft 412 kts 247°
2026-05-05 20:17 52.10514 11.66315 29792 ft 410 kts 247°
2026-05-05 20:17 52.09517 11.61938 29906 ft 414 kts 246°
2026-05-05 20:17 52.08462 11.57555 29902 ft 419 kts 245°
2026-05-05 20:18 52.06289 11.48700 29822 ft 422 kts 245°
2026-05-05 20:18 52.04137 11.39882 29835 ft 422 kts 245°
2026-05-05 20:19 52.01975 11.31016 29831 ft 423 kts 245°
2026-05-05 20:19 51.99794 11.22145 29832 ft 423 kts 245°
2026-05-05 20:20 51.97602 11.13265 29840 ft 425 kts 244°
2026-05-05 20:20 51.95421 11.04417 29839 ft 427 kts 244°
2026-05-05 20:21 51.93204 10.95486 29833 ft 427 kts 244°
2026-05-05 20:21 51.90956 10.86560 29835 ft 427 kts 244°
2026-05-05 20:22 51.88742 10.77607 29838 ft 427 kts 244°
2026-05-05 20:22 51.86517 10.68732 29825 ft 429 kts 244°
2026-05-05 20:23 51.84237 10.59816 29828 ft 429 kts 244°
2026-05-05 20:23 51.81980 10.50851 29822 ft 430 kts 244°
2026-05-05 20:24 51.79726 10.41895 29810 ft 431 kts 243°
2026-05-05 20:24 51.77435 10.32930 29817 ft 432 kts 244°
2026-05-05 20:25 51.75155 10.23934 29817 ft 433 kts 244°
2026-05-05 20:25 51.72848 10.14947 29811 ft 435 kts 244°
2026-05-05 20:26 51.70528 10.05925 29810 ft 435 kts 244°
2026-05-05 20:26 51.68204 9.97035 29808 ft 435 kts 244°
2026-05-05 20:27 51.65893 9.88149 29813 ft 435 kts 243°
2026-05-05 20:27 51.63407 9.79553 29833 ft 430 kts 233°
2026-05-05 20:27 51.61559 9.75995 29832 ft 426 kts 219°
2026-05-05 20:28 51.59194 9.73287 29843 ft 422 kts 206°
2026-05-05 20:28 51.53819 9.69706 29808 ft 421 kts 199°
2026-05-05 20:29 51.48336 9.66326 29821 ft 423 kts 199°
2026-05-05 20:29 51.42803 9.62947 29822 ft 423 kts 199°
2026-05-05 20:30 51.37331 9.59601 29825 ft 424 kts 199°
2026-05-05 20:30 51.31788 9.56236 29789 ft 427 kts 198°
2026-05-05 20:31 51.26212 9.52846 29796 ft 428 kts 198°
2026-05-05 20:31 51.20640 9.49467 29799 ft 429 kts 198°
2026-05-05 20:32 51.15042 9.46079 29787 ft 431 kts 198°
2026-05-05 20:32 51.09456 9.42716 29806 ft 433 kts 198°
2026-05-05 20:33 51.03812 9.39324 29803 ft 435 kts 198°
2026-05-05 20:33 50.98126 9.35915 29826 ft 436 kts 198°
2026-05-05 20:34 50.92432 9.32495 29822 ft 438 kts 197°
2026-05-05 20:34 50.86749 9.29109 29814 ft 439 kts 197°
2026-05-05 20:35 50.81010 9.25704 29811 ft 439 kts 197°
2026-05-05 20:35 50.75349 9.22347 29799 ft 439 kts 197°
2026-05-05 20:36 50.69493 9.19790 29826 ft 434 kts 185°
2026-05-05 20:36 50.63498 9.18517 29800 ft 434 kts 185°
2026-05-05 20:37 50.57507 9.17278 29806 ft 434 kts 184°
2026-05-05 20:37 50.51551 9.16042 29817 ft 434 kts 184°
2026-05-05 20:38 50.45548 9.14797 29798 ft 435 kts 184°
2026-05-05 20:38 50.39538 9.13537 29811 ft 435 kts 184°
2026-05-05 20:39 50.33520 9.12314 29807 ft 435 kts 184°
2026-05-05 20:39 50.27549 9.11090 29803 ft 436 kts 184°
2026-05-05 20:40 50.21527 9.09855 29810 ft 436 kts 184°
2026-05-05 20:40 50.15503 9.08622 29808 ft 436 kts 184°
2026-05-05 20:41 50.09477 9.07391 29811 ft 436 kts 184°
2026-05-05 20:41 50.03459 9.06168 29820 ft 436 kts 185°
2026-05-05 20:42 49.97475 9.04955 29806 ft 436 kts 185°
2026-05-05 20:42 49.91454 9.03735 29812 ft 436 kts 185°
2026-05-05 20:43 49.85429 9.02517 29815 ft 436 kts 185°
2026-05-05 20:43 49.79418 9.01310 29807 ft 435 kts 185°
2026-05-05 20:44 49.73413 9.00101 29812 ft 435 kts 185°
2026-05-05 20:44 49.67406 8.98895 29815 ft 435 kts 185°
2026-05-05 20:45 49.58433 8.96698 29816 ft 434 kts 189°
2026-05-05 20:45 49.52513 8.95073 29818 ft 434 kts 188°
2026-05-05 20:46 49.46556 8.93521 29821 ft 434 kts 188°
2026-05-05 20:46 49.40583 8.91967 29825 ft 434 kts 188°
2026-05-05 20:47 49.34677 8.90425 29822 ft 432 kts 188°
2026-05-05 20:47 49.28747 8.88886 29824 ft 432 kts 188°
2026-05-05 20:48 49.22819 8.87347 29825 ft 432 kts 188°
2026-05-05 20:48 49.16899 8.85789 29830 ft 430 kts 190°
2026-05-05 20:49 49.11065 8.84131 29822 ft 429 kts 190°
2026-05-05 20:49 49.05196 8.82504 29825 ft 429 kts 190°
2026-05-05 20:50 49.00264 8.81140 29834 ft 429 kts 190°
2026-05-05 20:50 48.94426 8.79535 29829 ft 428 kts 190°
2026-05-05 20:51 48.88568 8.77917 29831 ft 428 kts 191°
2026-05-05 20:51 48.82694 8.76327 29849 ft 428 kts 190°
2026-05-05 20:52 48.76827 8.74762 29845 ft 428 kts 191°
2026-05-05 20:52 48.70946 8.73206 29848 ft 428 kts 191°
2026-05-05 20:53 48.65086 8.71643 29861 ft 428 kts 191°
2026-05-05 20:53 48.59259 8.70076 29435 ft 418 kts 191°
2026-05-05 20:54 48.56389 8.69311 29040 ft 419 kts 191°
2026-05-05 20:54 48.53554 8.68555 28447 ft 419 kts 191°
2026-05-05 20:54 48.50690 8.67796 27855 ft 415 kts 191°
2026-05-05 20:54 48.47864 8.67048 27313 ft 410 kts 191°
2026-05-05 20:55 48.45075 8.66311 26793 ft 405 kts 191°
2026-05-05 20:55 48.42291 8.65574 26229 ft 402 kts 190°
2026-05-05 20:55 48.39540 8.64849 25721 ft 399 kts 190°
2026-05-05 20:55 48.36816 8.64124 25184 ft 396 kts 191°
2026-05-05 20:56 48.34120 8.63327 24655 ft 393 kts 192°
2026-05-05 20:56 48.31446 8.62505 24151 ft 389 kts 192°
2026-05-05 20:56 48.28846 8.61710 23647 ft 384 kts 192°
2026-05-05 20:56 48.26208 8.60913 23100 ft 381 kts 192°
2026-05-05 20:57 48.23657 8.60147 22642 ft 378 kts 192°
2026-05-05 20:57 48.21070 8.59372 22135 ft 376 kts 192°
2026-05-05 20:57 48.18507 8.58608 21620 ft 375 kts 192°
2026-05-05 20:57 48.15955 8.57850 21144 ft 373 kts 192°
2026-05-05 20:58 48.13416 8.57088 20652 ft 371 kts 192°
2026-05-05 20:58 48.10892 8.56328 20155 ft 368 kts 193°
2026-05-05 20:58 48.08382 8.55586 19671 ft 366 kts 193°
2026-05-05 20:58 48.05895 8.54828 19190 ft 364 kts 193°
2026-05-05 20:59 48.03416 8.54079 18706 ft 362 kts 193°
2026-05-05 20:59 48.00980 8.53352 18232 ft 361 kts 193°
2026-05-05 20:59 47.98524 8.52620 17748 ft 357 kts 193°
2026-05-05 20:59 47.96085 8.51958 17237 ft 357 kts 187°
2026-05-05 21:00 47.93632 8.52413 16792 ft 360 kts 163°
2026-05-05 21:00 47.91452 8.54281 16329 ft 365 kts 146°
2026-05-05 21:00 47.89524 8.56710 15829 ft 366 kts 141°
2026-05-05 21:00 47.87636 8.59245 15350 ft 363 kts 142°
2026-05-05 21:01 47.85734 8.61697 14870 ft 361 kts 143°
2026-05-05 21:01 47.83825 8.64076 14381 ft 352 kts 144°
2026-05-05 21:01 47.81962 8.66360 13930 ft 343 kts 144°
2026-05-05 21:01 47.80134 8.68587 13454 ft 335 kts 145°
2026-05-05 21:02 47.78357 8.70743 13059 ft 325 kts 145°
2026-05-05 21:02 47.76613 8.72849 12604 ft 319 kts 145°
2026-05-05 21:02 47.74910 8.74902 12203 ft 312 kts 146°
2026-05-05 21:02 47.73242 8.76918 11789 ft 306 kts 146°
2026-05-05 21:03 47.71605 8.78892 11375 ft 301 kts 146°
2026-05-05 21:03 47.69992 8.80833 10974 ft 296 kts 146°
2026-05-05 21:03 47.68444 8.82695 10609 ft 291 kts 146°
2026-05-05 21:03 47.66877 8.84581 10220 ft 288 kts 145°
2026-05-05 21:04 47.65354 8.86412 9874 ft 283 kts 144°
2026-05-05 21:04 47.63848 8.88222 9560 ft 278 kts 144°
2026-05-05 21:04 47.62205 8.89611 9243 ft 271 kts 166°
2026-05-05 21:04 47.60351 8.90181 8888 ft 274 kts 177°
2026-05-05 21:05 47.58472 8.90257 8486 ft 270 kts 184°
2026-05-05 21:05 47.56654 8.90134 8153 ft 257 kts 185°
2026-05-05 21:05 47.54984 8.90089 7829 ft 231 kts 183°
2026-05-05 21:05 47.53460 8.90171 7498 ft 213 kts 181°
2026-05-05 21:06 47.52054 8.90314 7267 ft 204 kts 180°
2026-05-05 21:06 47.50576 8.90473 7019 ft 211 kts 181°
2026-05-05 21:06 47.49141 8.90593 6704 ft 211 kts 182°
2026-05-05 21:06 47.47712 8.90640 6441 ft 206 kts 190°
2026-05-05 21:07 47.46449 8.89852 6205 ft 197 kts 224°
2026-05-05 21:07 47.45746 8.88150 5912 ft 200 kts 255°
2026-05-05 21:07 47.45645 8.86052 5666 ft 203 kts 264°
2026-05-05 21:07 47.45248 8.84091 5403 ft 196 kts 243°
2026-05-05 21:08 47.44680 8.82392 5136 ft 176 kts 250°
2026-05-05 21:08 47.44281 8.80745 4902 ft 169 kts 248°
2026-05-05 21:08 47.44013 8.79035 4580 ft 175 kts 272°
2026-05-05 21:08 47.44225 8.77285 4366 ft 173 kts 278°
2026-05-05 21:09 47.44350 8.75535 4147 ft 172 kts 270°
2026-05-05 21:09 47.44443 8.73767 3917 ft 172 kts 274°
2026-05-05 21:09 47.44584 8.72071 3657 ft 159 kts 274°
2026-05-05 21:09 47.44701 8.70496 3450 ft 152 kts 272°
2026-05-05 21:10 47.44807 8.68973 3232 ft 150 kts 272°
2026-05-05 21:10 47.44913 8.67425 2994 ft 151 kts 273°
2026-05-05 21:10 47.45024 8.65939 2776 ft 140 kts 273°
2026-05-05 21:10 47.45124 8.64546 2574 ft 133 kts 272°
2026-05-05 21:11 47.45225 8.63184 2373 ft 134 kts 274°
2026-05-05 21:11 47.45318 8.61812 2174 ft 136 kts 274°
2026-05-05 21:11 47.45419 8.60420 1952 ft 138 kts 273°
2026-05-05 21:11 47.45510 8.59040 1778 ft 133 kts 276°
2026-05-05 21:12 47.45617 8.57652 1555 ft 136 kts 275°
2026-05-05 21:12 47.45712 8.56297 1415 ft 122 kts 276°
2026-05-05 21:12 47.45790 8.55224 1398 ft 84 kts 276°
2026-05-05 21:12 47.45822 8.54591 1388 ft 51 kts 263°
2026-05-05 21:13 47.45699 8.54206 1383 ft 31 kts 190°
2026-05-05 21:13 47.45599 8.54342 1384 ft 4 kts 108°
2026-05-05 21:13 47.45588 8.54387 1383 ft 5 kts 108°
2026-05-05 21:13 47.45576 8.54442 1384 ft 6 kts 108°
2026-05-05 21:14 47.45561 8.54506 1388 ft 7 kts 108°
2026-05-05 21:14 47.45546 8.54579 1389 ft 7 kts 109°
2026-05-05 21:14 47.45544 8.54592 1386 ft 0 kts 108°
2026-05-05 21:15 47.45509 8.56788 1421 ft 0 kts 140°